Regional Weather Roundup
Issued by NWS

Home | Current Version | Previous Version | Text Only | Print | Product List | Glossary Off
Versions: 1 2 3 4 5 6 7 8 9 10 11 12 13 14 15 16 17 18 19 20 21 22 23 24 25 26 27

000
ASUS45 KSLC 250910
RWRUT

UTAH REGIONAL WEATHER ROUNDUP
NATIONAL WEATHER SERVICE SALT LAKE CITY UT
300 AM MDT MON JUL 25 2016

UTZ001>011-023>025-251000-

NORTHERN UTAH

CITY           SKY/WX    TMP DP  RH WIND       PRES   REMARKS
BRIGHAM CITY     N/A     63  41  43 CALM      30.06S
HILL AFB       PTCLDY    70  30  22 E21       30.07S
LOGAN          CLEAR     59  43  55 CALM      30.09S
OGDEN          CLEAR     70  30  22 SW3       30.04S
PROVO AIRPORT  PTCLDY    64  37  36 E6        30.08S
SALT LAKE CITY CLEAR     74  40  29 SE7       30.03S
VERNAL         CLEAR     64  29  26 NW7       30.14R
WENDOVER       CLEAR     73  27  17 SW6       30.04F
HEBER CITY     CLEAR     55  37  50 CALM      30.18S

$$

UTZ012>022-026-027-251000-

SOUTHERN/CENTRAL UTAH

CITY           SKY/WX    TMP DP  RH WIND       PRES   REMARKS
BLANDING       PTCLDY    67  43  40 NE5       30.29R
BRYCE CANYON   CLEAR     51  40  65 CALM      30.37R
CEDAR CITY     CLEAR     68  46  45 CALM      30.17R
DELTA          CLEAR     72  32  23 E5        30.08R
MILFORD        CLEAR     70  42  36 SW10      30.11R
MOAB/CYNLANDS  PTCLDY    75  35  23 CALM      30.04S
PRICE          CLEAR     67  19  16 N13       30.17S
ST GEORGE      SUNNY     86  46  25 E13       29.97R
KANAB          CLEAR     68  46  45 N9        30.18S

$$

REGIONAL REPORTS     COLORADO/ARIZONA

CITY           SKY/WX    TMP DP  RH WIND       PRES   REMARKS
CRAIG, CO      CLOUDY    48  40  73 CALM      30.25R
GRAND JUNCTION CLOUDY    74  40  29 SE9       30.09S
RIFLE          CLEAR     62  40  44 E3        30.19S
MONTROSE       CLEAR     65  41  41 SE9       30.23R
CORTEZ         PTCLDY    68  48  48 CALM      30.24R
PAGE, AZ       CLEAR     81  43  26 S5        30.09R
GRAND CANYON   CLEAR     54  49  83 CALM      30.30R
KINGMAN        CLEAR     80  52  37 SE8       30.03R
FLAGSTAFF      CLEAR     57  46  66 CALM      30.33S

$$

REGIONAL REPORTS    NEVADA/IDAHO/WYOMING

CITY           SKY/WX    TMP DP  RH WIND       PRES   REMARKS
LAS VEGAS, NV  PTCLDY    94  30  10 S7        29.82S
ELY            CLEAR     54  21  27 S8        30.19R
ELKO           CLEAR     59  25  27 SW3       30.11R
POCATELLO, ID  CLOUDY    50  35  56 CALM      30.11R
BURLEY         CLEAR     53  43  68 SW3       30.06S
EVANSTON, WY   CLOUDY    58  23  26 SE9       30.30S
ROCK SPRINGS   CLOUDY    61  14  16 W10       30.26S
KEMMERER         N/A     52  27  37 CALM      30.31R

$$




USA.gov is the U.S. government's official web portal to all federal, state and local government web resources and services.